This demonstration page uses our WeatherBlox Daily Observations layout. Learn more.

Left ArrowRight Arrow

Hourly Observations for November 19, 2018

Temp ( °F °C ) Dew Point ( °F °C ) Humidity (%) Winds ( mph kmh ) Pressure ( in mb ) Visibility ( mi km ) Precip ( " mm )
12:52 am 00:52 Mostly Cloudy 23 -5 15 -9.4 72 72 SSE 9 15 30.09 1019 10 16 0.00 0.00
1:52 am 01:52 Mostly Cloudy 24 -4.4 16 -8.9 71 71 SSE 9 15 30.08 1019 10 16 0.00 0.00
2:52 am 02:52 Mostly Cloudy 24 -4.4 17 -8.3 75 75 SSE 9 15 30.07 1018 10 16 0.00 0.00
3:52 am 03:52 Cloudy 25 -3.9 18 -7.8 75 75 SSE 8 13 30.06 1018 10 16 0.00 0.00
4:52 am 04:52 Mostly Cloudy 23 -5 17 -8.3 78 78 SSE 6 9 30.06 1018 10 16 0.00 0.00
5:52 am 05:52 Mostly Cloudy 23 -5 18 -7.8 81 81 SE 7 11 30.07 1018 10 16 0.00 0.00
6:52 am 06:52 Mostly Cloudy 25 -3.9 20 -6.7 81 81 SSE 3 6 30.09 1019 10 16 0.00 0.00
7:52 am 07:52 Mostly Cloudy 27 -2.8 20 -6.7 75 75 Calm 30.10 1019 10 16 0.00 0.00
8:52 am 08:52 Mostly Cloudy 30 -1.1 23 -5 75 75 N 6 9 30.12 1020 10 16 0.00 0.00
9:52 am 09:52 Mostly Cloudy 37 2.8 25 -3.9 62 62 N 15 24 30.13 1020 10 16 0.00 0.00
10:52 am 10:52 Mostly Cloudy 39 3.9 24 -4.4 55 55 N 17 28 30.15 1021 10 16 0.00 0.00
11:52 am 11:52 Mostly Cloudy 39 3.9 25 -3.9 57 57 NNW 17 28 30.16 1021 10 16 0.00 0.00
12:52 pm 12:52 Mostly Cloudy 38 3.3 24 -4.4 57 57 N 21 33 30.16 1021 10 16 0.00 0.00
1:52 pm 13:52 Cloudy 38 3.3 24 -4.4 57 57 N 17 28 30.18 1022 10 16 0.00 0.00
2:52 pm 14:52 Cloudy 36 2.2 22 -5.6 57 57 NNW 20 31 30.21 1023 10 16 0.00 0.00
3:52 pm 15:52 Mostly Cloudy 35 1.7 21 -6.1 57 57 N 16 26 30.22 1024 10 16 0.00 0.00
4:52 pm 16:52 Mostly Cloudy 33 0.6 20 -6.7 58 58 N 13 20 30.25 1025 10 16 0.00 0.00
5:52 pm 17:52 Cloudy 33 0.6 20 -6.7 58 58 N 9 15 30.27 1025 10 16 0.00 0.00
6:52 pm 18:52 Cloudy 32 0 20 -6.7 61 61 NNW 10 17 30.30 1026 10 16 0.00 0.00
7:52 pm 19:52 Partly Cloudy 28 -2.2 18 -7.8 66 66 NNW 9 15 30.32 1027 10 16 0.00 0.00
8:52 pm 20:52 Clear 24 -4.4 18 -7.8 77 77 N 6 9 30.34 1027 10 16 0.00 0.00
9:52 pm 21:52 Clear 22 -5.6 17 -8.3 82 82 N 6 9 30.35 1028 10 16 0.00 0.00
10:52 pm 22:52 Clear 20 -6.7 16 -8.9 85 85 NNW 5 7 30.36 1028 10 16 0.00 0.00
11:52 pm 23:52 Clear 20 -6.7 15 -9.4 81 81 NNE 7 11 30.35 1028 10 16 0.00 0.00

Powered by AerisWeather